View from above orbital plane
|
View from above satellite
|
Ground track
|
The orbit data is extracted from the following two-line orbital elements,
1 22081U 92053B 21058.48097040 .00000058 00000-0 30132-4 0 9996
2 22081 74.0439 128.2491 0034920 127.8566 232.5754 14.33512881491987
Epoch (UTC): | 27 February 2021 11:32:35 |
Eccentricity: | 0.0034920 |
inclination: | 74.0439° |
perigee height: | 755 km |
apogee height: | 805 km |
right ascension of ascending node: | 128.2491° |
argument of perigee: | 127.8566° |
revolutions per day: | 14.33512881 |
mean anomaly at epoch: | 232.5754° |
orbit number at epoch: | 49198 |
The dashed part of the orbit path shows where the satellite is in the earth's shadow,
|
|